Flag Weather past 2 weeks in Portland, Oregon, U.S.A.

Now
56 °F

Broken clouds.


Feels Like: 54 °F
Forecast: 54 / 57 °F
Wind: 8 mph from South

Location: Portland International Airport

Current Time: Nov 27, 2014 at 12:39:28 PM

Latest Report: Nov 27, 2014 at 11:53 AM


Visibility: 10 mi

Pressure: 29.95 "Hg

Humidity: 84%

Dew point: 51 °F

Location of PortlandLocation

Historic Weather in Portland — Graph

°F

Portland temperature yesterday

Maximum temperature yesterday: 61 °F (at 1:53 PM)
Minimum temperature yesterday: 55 °F (at 5:53 AM)
Average temperature yesterday: 57 °F

Past Weeks' High & Low Weather Summary

 TemperatureHumidityPressure
High62 °F (Nov 25, 12:53 PM)100% (Nov 21, 12:53 PM)30.53 "Hg (Nov 21, 12:53 PM)
Low28 °F (Nov 15, 5:53 AM)27% (Nov 15, 1:53 PM)29.42 "Hg (Nov 21, 6:53 PM)
Average43 °F71%30.14 "Hg
* Reported Nov 12 10:53 AM — Nov 27 10:53 AM, Portland, Weather by CustomWeather, © 2014

Note: Actual official high and low records may vary slightly from our data, if they occured in-between our weather recording intervals... More about our weather records

Advertising

Portland weather history for previous 24 hours

 ConditionsComfort  
Time TempWeatherWind HumidityBarometerVisibility
10:53 AM
Nov 27
57 °FCloudy.13 mph78%29.96 "Hg10 mi
9:53 AM56 °FMostly cloudy.12 mph77%29.97 "Hg10 mi
8:53 AM57 °FOvercast.12 mph72%29.96 "Hg10 mi
7:53 AM57 °FLight rain. Overcast.9 mph72%29.97 "Hg8 mi
6:53 AM57 °FLight rain. Overcast.8 mph72%29.95 "Hg10 mi
5:53 AM58 °FOvercast.7 mph67%29.96 "Hg10 mi
4:53 AM56 °FOvercast.12 mph77%29.96 "Hg10 mi
3:53 AM57 °FOvercast.13 mph74%29.97 "Hg10 mi
2:53 AM57 °FLight rain. Overcast.8 mph74%29.97 "Hg10 mi
1:53 AM58 °FLight rain. Overcast.7 mph72%29.97 "Hg10 mi
12:53 AM57 °FOvercast.12 mph78%29.98 "Hg10 mi
11:53 PM
Nov 26
58 °FOvercast.9 mph72%29.98 "Hg10 mi
10:53 PM56 °FOvercast.13 mph87%29.99 "Hg10 mi
9:53 PM55 °FOvercast.10 mph90%29.97 "Hg10 mi
8:53 PM56 °FPartly cloudy.12 mph87%29.99 "Hg10 mi
7:53 PM57 °FMostly cloudy.10 mph83%30.01 "Hg10 mi
6:53 PM57 °FOvercast.No wind83%30.02 "Hg10 mi
5:53 PM56 °FMostly cloudy.7 mph84%30.02 "Hg10 mi
4:53 PM57 °FMostly cloudy.8 mph83%30.04 "Hg10 mi
3:53 PM59 °FPartly sunny.8 mph81%30.06 "Hg10 mi
2:53 PM60 °FMostly cloudy.No wind78%30.09 "Hg10 mi
1:53 PM61 °FMostly cloudy.No wind78%30.10 "Hg10 mi
12:53 PM60 °FMostly cloudy.3 mph78%30.11 "Hg10 mi
Weather by CustomWeather, © 2014

See weather overviewHow to use our weather pages